Back to catalog

ASTRA 2A

AliveCommunicationsGEO
NORAD 25462·PAYLOAD·🇱🇺 Luxembourg

Launched Aug 30, 1998 from Baikonur Cosmodrome

Loading…

TLE

FreshSource: Space-Track

Epoch: Sep 14, 2026, 06:56 UTC

1 25462U 98050A   26257.28929104 -.00000197  00000-0  00000-0 0  9996
2 25462   7.3255  67.9505 0024455  74.2780 311.7499  0.98663222 47152

Track ASTRA 2A in real time with AllMySat

Download on the App Store